Weather reports worldwide

Advertisment
Lecce, Italy (16332): temperature & dewpoint: 30.03.2020 22:00:00 - 05.04.2020 22:00:00 (CEST)Lecce, Italy (16332): wind speed: 30.03.2020 22:00:00 - 05.04.2020 22:00:00 (CEST)Lecce, Italy (16332): wind direction: 30.03.2020 22:00:00 - 05.04.2020 22:00:00 (CEST)Lecce, Italy (16332): reduced air pressure: 30.03.2020 22:00:00 - 05.04.2020 22:00:00 (CEST)Lecce, Italy (16332): visibility: 30.03.2020 22:00:00 - 05.04.2020 22:00:00 (CEST)
Date & Time tt [°C] td [°C] ff [km/h] ff [kn] dd ppp [hPa] vv [km]
05.04.2020 22:00:00 14,0 10,0 13 7 NNE - 10
05.04.2020 21:00:00 14,0 11,0 15 8 NNE - 10
05.04.2020 20:00:00 14,6 11,0 15 8 NNE 1015,1 10
05.04.2020 19:00:00 15,0 10,0 18 10 N - 10
05.04.2020 18:00:00 15,0 11,0 24 13 NNE - 10
05.04.2020 17:00:00 15,8 10,8 24 13 NNE 1013,3 10
05.04.2020 16:00:00 16,0 11,0 22 12 NNE - 10
05.04.2020 15:00:00 16,0 9,0 24 13 NNE - 10
05.04.2020 14:00:00 17,0 10,4 26 14 NNE 1012,7 10
05.04.2020 13:00:00 17,0 10,0 26 14 NNE - 10
05.04.2020 12:00:00 17,0 10,0 28 15 NNE - 10
05.04.2020 11:00:00 15,8 11,2 24 13 NNE 1012,4 10
05.04.2020 10:00:00 16,0 11,0 24 13 NNE - 10
05.04.2020 09:00:00 14,0 11,0 18 10 NNE - 10
05.04.2020 08:00:00 13,2 10,2 22 12 N 1011,3 10
05.04.2020 07:00:00 13,0 10,0 13 7 N - 10
05.04.2020 06:00:00 13,0 10,0 15 8 N - 10
05.04.2020 05:00:00 13,0 9,6 24 13 N 1011,3 10
05.04.2020 04:00:00 13,0 10,0 28 15 N - 10
05.04.2020 03:00:00 12,0 10,0 16 9 N - 10
05.04.2020 02:00:00 12,0 9,9 16 9 NNW 1011,8 10
05.04.2020 01:00:00 12,0 10,0 13 7 N - 10
05.04.2020 00:00:00 13,0 10,0 15 8 N - 10
04.04.2020 23:00:00 12,2 9,6 15 8 NNW 1012,2 10
04.04.2020 22:00:00 13,0 10,0 18 10 NNW - 10
04.04.2020 21:00:00 13,0 9,0 22 12 NNW - 10
04.04.2020 20:00:00 13,6 9,8 22 12 NNW 1011,1 10
04.04.2020 19:00:00 14,0 8,0 26 14 NNW - 10
04.04.2020 18:00:00 15,0 8,0 29 16 NNW - 10
04.04.2020 17:00:00 15,2 7,5 37 20 N 1010,3 10
04.04.2020 16:00:00 16,0 9,0 37 20 N - 10
04.04.2020 15:00:00 16,0 9,0 39 21 N - 10
04.04.2020 14:00:00 16,0 9,9 34 18 N 1011,0 10
04.04.2020 13:00:00 16,0 10,0 31 17 N - 10
04.04.2020 12:00:00 16,0 10,0 34 18 N - 10
04.04.2020 11:00:00 14,2 9,2 34 18 N 1011,3 10
04.04.2020 10:00:00 13,0 11,0 26 14 NNW - 10
04.04.2020 09:00:00 11,0 9,0 24 13 NNW - 8
04.04.2020 08:00:00 11,0 8,9 18 10 NNW 1011,2 8
04.04.2020 07:00:00 10,0 8,0 18 10 NNW - 10
04.04.2020 06:00:00 9,0 8,0 21 11 NNW - 10
04.04.2020 05:00:00 9,4 7,8 21 11 NNW 1011,7 8
04.04.2020 04:00:00 9,0 8,0 18 10 NNW - 8
04.04.2020 03:00:00 10,0 9,0 13 7 NNW - 8
04.04.2020 02:00:00 10,0 8,6 13 7 NNW 1012,3 8
04.04.2020 01:00:00 9,0 8,0 9 5 N - 8
04.04.2020 00:00:00 9,0 8,0 11 6 N - 6
03.04.2020 23:00:00 9,2 8,0 8 4 N 1012,6 6
03.04.2020 22:00:00 9,0 8,0 13 7 NNW - 6
03.04.2020 21:00:00 9,0 8,0 9 5 NNW - 6
03.04.2020 20:00:00 9,2 8,0 15 8 N 1012,4 6
03.04.2020 19:00:00 9,0 8,0 15 8 N - 6
03.04.2020 18:00:00 10,0 9,0 11 6 N - 6
03.04.2020 17:00:00 9,8 8,6 11 6 N 1012,4 6
03.04.2020 16:00:00 10,0 8,0 13 7 N - 6
03.04.2020 15:00:00 11,0 9,0 13 7 N - 8
03.04.2020 14:00:00 10,4 8,0 13 7 NNE 1013,2 8
03.04.2020 13:00:00 10,0 8,0 13 7 N - 7
03.04.2020 12:00:00 11,0 8,0 9 5 NNE - 5
03.04.2020 11:00:00 11,6 5,9 5 3 ENE 1013,5 10
03.04.2020 10:00:00 11,0 6,0 8 4 NNW - 10
03.04.2020 09:00:00 8,0 6,0 2 1 NW - 8
03.04.2020 08:00:00 5,6 4,4 4 2 N 1013,3 10
03.04.2020 07:00:00 5,0 4,0 5 3 N - 10
03.04.2020 06:00:00 5,0 4,0 4 2 W - 10
03.04.2020 05:00:00 4,2 3,2 4 2 N 1013,2 10
03.04.2020 04:00:00 4,0 3,0 4 2 E - 10
03.04.2020 03:00:00 4,0 3,0 4 2 E - 10
03.04.2020 02:00:00 3,6 2,9 4 2 ESE 1014,3 10
03.04.2020 01:00:00 4,0 3,0 4 2 S - 10
03.04.2020 00:00:00 4,0 3,0 4 2 SE - 10
02.04.2020 23:00:00 4,4 3,2 4 2 N 1014,2 10
02.04.2020 22:00:00 5,0 4,0 2 1 SW - 10
02.04.2020 21:00:00 6,0 4,0 4 2 NNE - 10
02.04.2020 20:00:00 8,4 4,4 8 4 NNE 1013,8 10
02.04.2020 19:00:00 10,0 4,0 11 6 NNE - 10
02.04.2020 18:00:00 12,0 4,0 18 10 NNE - 10
02.04.2020 17:00:00 12,4 4,6 16 9 NNE 1013,8 10
02.04.2020 16:00:00 13,0 5,0 15 8 N - 10
02.04.2020 15:00:00 13,0 4,0 13 7 N - 10
02.04.2020 14:00:00 12,2 5,1 11 6 N 1014,6 10
02.04.2020 13:00:00 11,0 6,0 13 7 NNE - 10
02.04.2020 12:00:00 10,0 6,0 9 5 N - 10
02.04.2020 11:00:00 9,4 5,0 11 6 NNW 1015,0 10
02.04.2020 10:00:00 9,0 5,0 13 7 NW - 10
02.04.2020 09:00:00 9,0 5,0 15 8 NNW - 10
02.04.2020 08:00:00 7,0 4,0 11 6 NW 1014,3 10
02.04.2020 07:00:00 7,0 4,0 9 5 NW - 10
02.04.2020 06:00:00 7,0 4,0 13 7 NW - 10
02.04.2020 05:00:00 7,0 3,8 13 7 WNW 1013,7 10
02.04.2020 04:00:00 7,0 4,0 15 8 WNW - 10
02.04.2020 03:00:00 6,0 4,0 15 8 W - 10
02.04.2020 02:00:00 6,6 3,0 18 10 WNW 1013,8 10
02.04.2020 01:00:00 6,0 3,0 15 8 W - 10
02.04.2020 00:00:00 6,0 2,0 9 5 W - 10
01.04.2020 23:00:00 7,4 2,3 16 9 NNW 1013,9 10
01.04.2020 22:00:00 8,0 3,0 16 9 WNW - 10
01.04.2020 21:00:00 8,0 2,0 18 10 WNW - 10
01.04.2020 20:00:00 7,4 2,7 11 6 WNW 1013,5 10
01.04.2020 19:00:00 9,0 3,0 18 10 NNW - 10
01.04.2020 18:00:00 9,0 4,0 22 12 NNW - 10
01.04.2020 17:00:00 9,0 3,8 24 13 NNW 1012,6 10
01.04.2020 16:00:00 9,0 4,0 39 21 NNW - 10
01.04.2020 15:00:00 10,0 5,0 37 20 NW - 10
01.04.2020 14:00:00 10,6 5,4 28 15 NW 1012,0 10
01.04.2020 13:00:00 10,0 6,0 15 8 WSW - 10
01.04.2020 12:00:00 9,0 5,0 16 9 W - 10
01.04.2020 11:00:00 7,2 5,2 18 10 WNW 1013,1 7
01.04.2020 10:00:00 6,0 5,0 18 10 WNW - 7
01.04.2020 09:00:00 5,0 4,0 18 10 NW - 6
01.04.2020 08:00:00 6,0 5,1 21 11 NW 1013,4 7
01.04.2020 07:00:00 6,0 5,0 21 11 NW - 8
01.04.2020 06:00:00 7,0 7,0 21 11 NNW - 10
01.04.2020 05:00:00 8,4 7,5 22 12 NNW 1013,0 10
01.04.2020 04:00:00 10,0 8,0 13 7 NNW - 10
01.04.2020 03:00:00 10,0 8,0 15 8 NNW - 10
01.04.2020 02:00:00 10,0 8,6 18 10 NNW 1014,4 10
01.04.2020 01:00:00 10,0 9,0 21 11 NNW - 10
01.04.2020 00:00:00 11,0 10,0 18 10 NNW - 10
31.03.2020 23:00:00 11,4 9,8 15 8 NNW 1015,7 10
31.03.2020 22:00:00 11,0 10,0 11 6 NNW - 10
31.03.2020 21:00:00 11,0 10,0 13 7 N - 10
31.03.2020 20:00:00 12,2 9,8 21 11 N 1015,1 10
31.03.2020 19:00:00 13,0 10,0 24 13 NNW - 10
31.03.2020 18:00:00 14,0 10,0 26 14 N - 10
31.03.2020 17:00:00 16,0 11,0 31 17 NNW 1013,4 10
31.03.2020 16:00:00 17,0 11,0 26 14 N - 10
31.03.2020 15:00:00 17,0 12,0 26 14 NNW - 10
31.03.2020 14:00:00 17,8 11,8 24 13 NNW 1013,7 10
31.03.2020 13:00:00 18,0 12,0 22 12 NNW - 10
31.03.2020 12:00:00 17,0 12,0 21 11 NNW - 10
31.03.2020 11:00:00 16,0 11,8 15 8 NNW 1013,7 8
31.03.2020 10:00:00 14,0 12,0 18 10 NNW - 7
31.03.2020 09:00:00 11,0 10,0 8 4 NW - 5
31.03.2020 08:00:00 7,4 6,7 4 2 SW 1013,5 1,2
31.03.2020 07:00:00 7,0 6,0 2 1 - - 0,3
31.03.2020 06:00:00 7,0 7,0 4 2 - - 0,5
31.03.2020 05:00:00 8,0 7,2 4 2 N 1012,8 0,5
31.03.2020 04:00:00 8,0 7,0 8 4 W - 0,3
31.03.2020 03:00:00 8,0 7,0 2 1 - - 0,3
31.03.2020 02:00:00 8,2 7,4 4 2 N 1012,5 0,3
31.03.2020 01:00:00 9,0 9,0 2 1 - - 0,7
31.03.2020 00:00:00 10,0 9,0 5 3 NW - 2,5
30.03.2020 23:00:00 11,0 10,2 5 3 NW 1012,4 6
30.03.2020 22:00:00 12,0 11,0 9 5 N - 7

tt = temperature
td = dewpoint
ff = wind speed
dd = wind direction
ppp = reduced air pressure
vv = visibility

Next stations